Location: Newark
(40.7060°N, 73.9980°W)
Time: 14:37:55
(UTC+00:00)

N. Korean satellite - Pass Details

Date: 21 November 2019
Orbit: 456 x 506 km, 97.2° (Epoch: 06 December)

Event Time Altitude Azimuth Distance (km) Brightness Sun altitude
Rises 10:00:55 0° 27° (NNE) 2,606 10.5 -20.4°
Reaches altitude 10° 10:03:25 10° 44° (NE) 1,710 9.8 -19.9°
Maximum altitude 10:06:15 21° 94° (E) 1,171 9.4 -19.4°
Drops below altitude 10° 10:09:01 10° 144° (SE) 1,679 9.9 -18.9°
Sets 10:11:27 0° 161° (SSE) 2,545 10.6 -18.4°
